SQ6MTB Weather Reports


Display with metric or nautical units.
time (UTC)temp
F
wind
direction
speed
MPH
gust
MPH
rain 1hr
in
rain 24hr
in
rain mn
in
humidity
%
barometer
mb
20260906123016 65 336 1.0 10.0 0.00 0.13 0.00 59 1026.7
20260906122517 65 312 1.0 13.0 0.00 0.13 0.00 57 1026.7
20260906122024 65 292 5.0 16.0 0.00 0.13 0.00 57 1026.6
20260906121535 65 281 6.0 16.0 0.00 0.13 0.00 55 1026.5
20260906121037 66 260 6.0 16.0 0.00 0.13 0.00 53 1026.6
20260906120519 65 338 4.0 16.0 0.00 0.13 0.00 57 1026.4
20260906115541 65 346 4.0 16.0 0.00 0.13 0.00 59 1026.4
20260906115050 65 247 9.0 16.0 0.00 0.13 0.00 57 1026.3
20260906114557 64 262 10.0 15.0 0.00 0.13 0.00 58 1026.3
20260906114008 63 10 5.0 12.0 0.00 0.13 0.00 56 1026.3
20260906113515 64 355 4.0 12.0 0.00 0.13 0.00 57 1026.3
20260906113051 64 279 0.0 11.0 0.00 0.13 0.00 60 1026.4
20260906112539 65 326 4.0 10.0 0.00 0.13 0.00 61 1026.5
20260906112045 65 294 3.0 13.0 0.00 0.13 0.00 60 1026.4
20260906111553 66 275 2.0 13.0 0.00 0.13 0.00 57 1026.3
20260906111003 66 243 1.0 10.0 0.00 0.13 0.00 60 1026.2
20260906110509 65 250 2.0 14.0 0.00 0.13 0.00 58 1026.3
20260906110045 65 283 8.0 19.0 0.00 0.13 0.00 59 1026.4
20260906105526 65 267 11.0 19.0 0.00 0.13 0.00 57 1026.4
20260906105011 66 279 9.0 19.0 0.00 0.13 0.00 57 1026.4
20260906104517 66 235 10.0 19.0 0.00 0.13 0.00 56 1026.4
20260906104024 65 261 3.0 15.0 0.00 0.13 0.00 57 1026.5
20260906103544 65 312 3.0 11.0 0.00 0.13 0.00 59 1026.4
20260906103048 64 280 1.0 13.0 0.00 0.13 0.00 59 1026.3
20260906102550 63 360 3.0 13.0 0.00 0.13 0.00 60 1026.2
20260906102100 63 280 2.0 13.0 0.00 0.13 0.00 62 1026.2
20260906102002 63 242 2.0 13.0 0.00 0.13 0.00 61 1026.2
20260906101538 63 351 4.0 13.0 0.00 0.13 0.00 60 1026.2
20260906101016 63 319 3.0 12.0 0.00 0.13 0.00 60 1026.2
20260906100550 63 275 3.0 11.0 0.00 0.13 0.00 61 1026.2
20260906100038 63 42 4.0 19.0 0.00 0.13 0.00 59 1026.2
20260906095543 63 282 8.0 19.0 0.00 0.13 0.00 60 1026.1
20260906095047 63 277 9.0 19.0 0.00 0.13 0.00 61 1026.2
20260906094528 63 269 7.0 15.0 0.00 0.13 0.00 62 1026.1
20260906094036 62 250 5.0 13.0 0.00 0.13 0.00 62 1026.2
20260906093519 63 313 5.0 9.0 0.00 0.13 0.00 62 1026.1
20260906093013 62 63 2.0 14.0 0.00 0.13 0.00 64 1026.2
20260906092549 62 336 4.0 16.0 0.00 0.13 0.00 64 1026.1
20260906092057 62 311 1.0 16.0 0.00 0.13 0.00 66 1026.1
20260906091505 62 333 3.0 19.0 0.00 0.13 0.00 65 1026.3
20260906091014 62 314 4.0 19.0 0.00 0.13 0.00 65 1026.3
20260906090548 62 286 5.0 14.0 0.00 0.13 0.00 65 1026.4
20260906090030 62 113 5.0 14.0 0.00 0.13 0.00 65 1026.3
20260906085513 61 291 5.0 14.0 0.00 0.13 0.00 67 1026.3
20260906085022 61 104 7.0 20.0 0.00 0.13 0.00 68 1026.2
20260906084531 61 278 9.0 17.0 0.00 0.13 0.00 67 1026.3
20260906084016 61 276 10.0 17.0 0.00 0.13 0.00 67 1026.2
20260906083551 60 238 5.0 20.0 0.00 0.13 0.00 70 1026.2
20260906083102 60 242 12.0 20.0 0.00 0.13 0.00 70 1026.2
20260906082506 60 256 3.0 17.0 0.00 0.13 0.00 73 1026.3
20260906082013 60 298 5.0 17.0 0.00 0.13 0.00 72 1026.2
20260906081522 59 250 8.0 16.0 0.00 0.13 0.00 75 1026.1
20260906081022 59 244 9.0 18.0 0.00 0.13 0.00 74 1026.1
20260906080532 59 244 9.0 18.0 0.00 0.13 0.00 74 1026.0
20260906080016 59 325 5.0 18.0 0.00 0.13 0.00 76 1025.9
20260906075522 59 296 7.0 16.0 0.00 0.13 0.00 76 1025.7
20260906075037 58 211 5.0 18.0 0.00 0.13 0.00 77 1025.8
20260906074545 58 240 10.0 18.0 0.00 0.13 0.00 77 1025.8
20260906074050 58 289 10.0 18.0 0.00 0.13 0.00 78 1025.7
20260906073603 57 239 12.0 17.0 0.00 0.13 0.00 78 1025.6
20260906073008 57 256 11.0 17.0 0.00 0.13 0.00 79 1025.6
20260906072519 57 269 9.0 20.0 0.00 0.13 0.00 80 1025.5
20260906072025 56 279 9.0 18.0 0.00 0.13 0.00 81 1025.5
20260906071601 56 225 9.0 18.0 0.00 0.13 0.00 81 1025.4
20260906071506 56 260 9.0 18.0 0.00 0.13 0.00 81 1025.4
20260906071047 56 289 9.0 16.0 0.00 0.13 0.00 81 1025.5
20260906070559 56 262 10.0 17.0 0.00 0.13 0.00 81 1025.4
20260906070008 56 273 10.0 18.0 0.00 0.13 0.00 80 1025.2
20260906065517 57 265 9.0 18.0 0.00 0.13 0.00 80 1025.2
20260906065024 57 267 9.0 16.0 0.00 0.13 0.00 80 1025.2
20260906064531 57 279 11.0 17.0 0.00 0.13 0.00 80 1025.0
20260906064045 56 273 9.0 17.0 0.00 0.13 0.00 80 1025.0
20260906063548 56 271 10.0 18.0 0.00 0.13 0.00 81 1025.0
20260906063029 56 275 6.0 18.0 0.00 0.13 0.00 82 1024.9
20260906062541 55 283 9.0 21.0 0.00 0.13 0.00 82 1024.9
20260906062046 55 254 11.0 21.0 0.00 0.13 0.00 83 1024.8
20260906061559 55 269 8.0 16.0 0.00 0.13 0.00 83 1024.8
20260906061006 54 279 7.0 14.0 0.00 0.13 0.00 84 1024.6
20260906060512 54 265 6.0 14.0 0.00 0.13 0.00 84 1024.6
20260906060022 54 180 9.0 14.0 0.00 0.13 0.00 84 1024.6
20260906055552 54 300 6.0 13.0 0.00 0.13 0.00 85 1024.7
20260906055501 54 261 6.0 13.0 0.00 0.13 0.00 85 1024.7
20260906055035 54 254 5.0 11.0 0.00 0.13 0.00 85 1024.7
20260906054516 54 236 4.0 12.0 0.00 0.13 0.00 85 1024.5
20260906054025 53 244 6.0 12.0 0.00 0.13 0.00 85 1024.3
20260906053532 53 241 5.0 15.0 0.00 0.13 0.00 85 1024.3
20260906053044 53 290 6.0 15.0 0.00 0.13 0.00 85 1024.2
20260906052555 53 251 7.0 14.0 0.00 0.13 0.00 85 1024.1
20260906052006 53 242 7.0 13.0 0.00 0.13 0.00 86 1024.1
20260906051542 53 278 7.0 17.0 0.00 0.13 0.00 86 1024.1
20260906051024 53 277 9.0 17.0 0.00 0.13 0.00 86 1024.1
20260906050533 53 289 6.0 15.0 0.00 0.13 0.00 86 1024.1
20260906050046 53 266 6.0 17.0 0.00 0.13 0.00 86 1024.0
20260906045554 53 265 8.0 17.0 0.00 0.13 0.00 86 1023.9
20260906045004 53 269 8.0 16.0 0.00 0.13 0.00 86 1023.8
20260906044516 53 261 8.0 14.0 0.00 0.13 0.00 86 1023.7
20260906044023 53 276 7.0 14.0 0.00 0.13 0.00 86 1023.7
20260906043532 53 280 5.0 11.0 0.00 0.13 0.00 85 1023.6
20260906043026 53 267 6.0 13.0 0.00 0.13 0.00 85 1023.5
20260906042555 53 261 8.0 13.0 0.00 0.13 0.00 85 1023.5
20260906042004 53 259 6.0 13.0 0.00 0.13 0.00 85 1023.5
20260906041511 53 278 7.0 14.0 0.00 0.13 0.00 85 1023.3
20260906041019 53 277 9.0 14.0 0.00 0.13 0.00 85 1023.3
20260906040554 53 267 9.0 16.0 0.00 0.13 0.00 85 1023.2
20260906040503 53 273 9.0 16.0 0.00 0.13 0.00 85 1023.2
20260906040037 54 286 8.0 16.0 0.00 0.13 0.00 85 1023.1
20260906035518 54 259 8.0 18.0 0.00 0.13 0.00 85 1023.1
20260906035026 54 271 10.0 18.0 0.00 0.13 0.00 85 1023.1
20260906034552 54 248 8.0 17.0 0.00 0.13 0.00 85 1023.1
20260906034046 54 238 10.0 17.0 0.00 0.13 0.00 85 1023.0
20260906033554 54 297 7.0 18.0 0.00 0.13 0.00 85 1023.0
20260906033004 54 274 11.0 18.0 0.00 0.13 0.00 85 1023.0
20260906032538 54 259 8.0 14.0 0.00 0.13 0.00 85 1022.9
20260906032022 54 303 6.0 17.0 0.00 0.13 0.00 85 1022.9
20260906031532 54 273 10.0 17.0 0.00 0.13 0.00 85 1022.8
20260906031042 54 265 9.0 15.0 0.00 0.13 0.00 86 1022.8
20260906030552 54 293 6.0 13.0 0.00 0.13 0.00 86 1022.8
20260906030100 54 267 8.0 13.0 0.00 0.13 0.00 86 1022.8
20260906030003 54 290 9.0 13.0 0.00 0.13 0.00 86 1022.8
20260906025515 54 257 9.0 13.0 0.00 0.13 0.00 86 1022.9
20260906025022 54 270 7.0 12.0 0.00 0.13 0.00 86 1022.8
20260906024606 54 242 6.0 11.0 0.00 0.13 0.00 86 1022.7
20260906024504 54 282 6.0 11.0 0.00 0.13 0.00 86 1022.7
20260906024040 54 230 6.0 13.0 0.00 0.13 0.00 86 1022.8
20260906023522 54 281 6.0 13.0 0.00 0.13 0.00 86 1022.8
20260906023031 54 276 4.0 13.0 0.00 0.13 0.00 86 1022.8
20260906022545 54 257 8.0 13.0 0.00 0.13 0.00 86 1022.7
20260906022048 54 292 8.0 14.0 0.00 0.13 0.00 86 1022.6
20260906021602 54 246 8.0 14.0 0.00 0.13 0.00 86 1022.5
20260906021006 54 254 6.0 17.0 0.00 0.13 0.00 85 1022.5
20260906020513 54 266 9.0 17.0 0.00 0.13 0.00 85 1022.4
20260906020020 54 267 8.0 13.0 0.00 0.13 0.00 85 1022.5
20260906015509 54 240 6.0 11.0 0.00 0.13 0.00 85 1022.4
20260906015046 54 263 5.0 11.0 0.00 0.13 0.00 85 1022.5
20260906014528 54 271 6.0 11.0 0.00 0.13 0.00 85 1022.4
20260906014043 54 254 7.0 13.0 0.00 0.13 0.00 84 1022.3
20260906013548 55 252 6.0 14.0 0.00 0.13 0.00 84 1022.3
20260906013056 55 257 8.0 14.0 0.00 0.13 0.00 84 1022.2
20260906012506 55 277 7.0 13.0 0.00 0.13 0.00 84 1022.2
20260906012012 55 248 8.0 19.0 0.00 0.13 0.00 83 1022.2
20260906011551 55 239 9.0 19.0 0.00 0.13 0.00 83 1022.2
20260906011038 55 255 8.0 18.0 0.00 0.13 0.00 83 1022.1
20260906010544 55 277 12.0 18.0 0.00 0.13 0.00 83 1021.9
20260906010121 55 251 10.0 17.0 0.00 0.13 0.00 83 1021.9
20260906005559 55 254 10.0 17.0 0.00 0.13 0.00 83 1021.9
20260906005503 55 305 9.0 16.0 0.00 0.13 0.00 83 1021.9
20260906005010 55 259 10.0 16.0 0.00 0.13 0.00 83 1021.9
20260906004518 55 259 10.0 16.0 0.00 0.13 0.00 83 1022.0
20260906004029 55 267 10.0 19.0 0.00 0.13 0.00 83 1022.0
20260906003535 55 250 10.0 19.0 0.00 0.13 0.00 83 1021.9
20260906003016 55 255 7.0 16.0 0.00 0.13 0.00 83 1021.8
20260906002555 55 270 9.0 16.0 0.00 0.13 0.00 83 1021.7
20260906002007 55 263 9.0 14.0 0.00 0.13 0.00 83 1021.8
20260906001528 56 279 8.0 14.0 0.00 0.13 0.00 82 1021.9
20260906001020 56 256 7.0 18.0 0.00 0.13 0.00 82 1021.8
20260906000529 56 259 9.0 18.0 0.00 0.13 0.00 82 1021.8
20260906000036 56 261 9.0 15.0 0.00 0.13 0.00 82 1021.7
20260905235515 56 279 8.0 15.0 0.00 0.13 0.00 82 1021.7
20260905235056 56 251 8.0 15.0 0.00 0.13 0.00 83 1021.8
20260905234506 56 221 8.0 15.0 0.00 0.13 0.00 83 1021.7
20260905234014 56 288 8.0 18.0 0.00 0.13 0.00 83 1021.7
20260905233522 56 273 8.0 18.0 0.00 0.13 0.00 83 1021.7
20260905233032 56 275 9.0 16.0 0.00 0.13 0.00 82 1021.7
20260905232544 56 257 10.0 15.0 0.00 0.13 0.00 83 1021.6
20260905232052 56 253 7.0 19.0 0.00 0.13 0.00 83 1021.7
20260905231555 56 282 12.0 19.0 0.00 0.13 0.00 83 1021.6
20260905231033 56 279 7.0 14.0 0.00 0.13 0.00 84 1021.6
20260905230515 56 251 8.0 14.0 0.00 0.13 0.00 84 1021.6
20260905230054 56 254 8.0 14.0 0.00 0.13 0.00 84 1021.6
20260905225503 56 251 8.0 14.0 0.00 0.13 0.00 84 1021.6
20260905225012 56 251 9.0 14.0 0.00 0.13 0.00 84 1021.5
20260905224524 56 260 8.0 18.0 0.00 0.13 0.00 84 1021.3
20260905224030 56 217 12.0 18.0 0.00 0.13 0.00 84 1021.2
20260905223512 55 261 7.0 16.0 0.00 0.13 0.00 84 1021.2
20260905223054 55 261 10.0 16.0 0.00 0.13 0.00 85 1021.1
20260905222530 55 246 8.0 13.0 0.00 0.13 0.00 85 1021.1
20260905222042 55 274 8.0 13.0 0.00 0.13 0.00 85 1021.1
20260905221547 55 274 5.0 11.0 0.00 0.13 0.00 85 1021.2
20260905221028 55 231 8.0 14.0 0.00 0.13 0.00 85 1021.2
20260905220514 55 243 8.0 14.0 0.00 0.13 0.00 85 1021.2
20260905220047 55 248 7.0 14.0 0.00 0.17 0.13 86 1021.1
20260905215555 55 252 8.0 14.0 0.00 0.17 0.13 86 1021.1
20260905215009 55 254 8.0 15.0 0.00 0.17 0.13 86 1021.1
20260905214516 55 252 9.0 15.0 0.00 0.17 0.13 86 1021.1
20260905214021 55 263 6.0 13.0 0.00 0.17 0.13 86 1021.0
20260905213528 55 278 6.0 13.0 0.00 0.17 0.13 86 1021.0
20260905213035 55 219 5.0 13.0 0.00 0.17 0.13 87 1020.8
20260905212547 56 245 6.0 13.0 0.00 0.17 0.13 87 1020.9
20260905212049 56 265 7.0 12.0 0.00 0.17 0.13 87 1020.8
20260905211536 56 276 5.0 10.0 0.00 0.17 0.13 86 1020.7
20260905211041 56 262 6.0 12.0 0.00 0.17 0.13 86 1020.7
20260905210543 56 232 6.0 14.0 0.00 0.17 0.13 86 1020.8
20260905210037 56 261 4.0 13.0 0.00 0.25 0.13 86 1020.7
20260905205539 56 275 6.0 14.0 0.00 0.25 0.13 86 1020.8
20260905205047 56 286 9.0 14.0 0.00 0.25 0.13 86 1020.7
20260905204558 56 289 8.0 13.0 0.00 0.25 0.13 87 1020.7
20260905204059 56 284 8.0 12.0 0.00 0.25 0.13 87 1020.6
20260905204002 56 279 7.0 12.0 0.00 0.25 0.13 88 1020.7
20260905203512 56 273 8.0 14.0 0.00 0.25 0.13 88 1020.7
20260905203020 56 237 6.0 12.0 0.00 0.25 0.13 88 1020.6
20260905202527 56 254 5.0 12.0 0.00 0.25 0.13 88 1020.6
20260905202009 56 267 5.0 13.0 0.00 0.25 0.13 88 1020.5
20260905201523 56 275 6.0 14.0 0.00 0.25 0.13 88 1020.4
20260905201025 56 264 8.0 14.0 0.00 0.25 0.13 88 1020.4
20260905200534 56 276 6.0 11.0 0.00 0.25 0.13 88 1020.3
20260905200110 56 269 6.0 11.0 0.00 0.31 0.13 88 1020.2
20260905195554 56 286 5.0 11.0 0.00 0.31 0.13 88 1020.1
20260905195006 56 279 6.0 12.0 0.00 0.31 0.13 88 1020.1
20260905194511 56 267 5.0 12.0 0.00 0.31 0.13 88 1020.0
20260905194022 56 250 6.0 11.0 0.00 0.31 0.13 88 1020.0
20260905193529 56 273 4.0 12.0 0.00 0.31 0.13 88 1019.8
20260905193017 56 279 5.0 12.0 0.01 0.31 0.13 88 1019.9
20260905192545 56 261 7.0 12.0 0.01 0.31 0.13 88 1019.8
20260905192028 56 252 4.0 13.0 0.01 0.31 0.13 88 1019.8
20260905191542 56 271 5.0 13.0 0.02 0.31 0.13 88 1019.8
20260905191043 56 213 5.0 9.0 0.02 0.31 0.13 89 1019.7
20260905190525 56 265 5.0 12.0 0.02 0.31 0.13 89 1019.7
20260905190034 56 244 4.0 12.0 0.02 0.31 0.13 88 1019.7
20260905185514 56 259 6.0 12.0 0.02 0.31 0.13 88 1019.6
20260905185055 56 228 5.0 11.0 0.02 0.31 0.13 88 1019.5
20260905184508 56 257 5.0 13.0 0.02 0.31 0.13 88 1019.6
20260905184017 56 243 6.0 16.0 0.02 0.31 0.13 88 1019.6
20260905183526 56 272 8.0 16.0 0.02 0.31 0.13 87 1019.7
20260905183040 56 293 7.0 17.0 0.01 0.31 0.12 87 1019.5
20260905182541 56 279 8.0 18.0 0.01 0.31 0.12 86 1019.5
20260905182025 57 319 9.0 21.0 0.01 0.31 0.12 85 1019.8
20260905181559 57 351 9.0 21.0 0.00 0.30 0.11 84 1019.7
20260905181506 57 271 9.0 21.0 0.00 0.30 0.11 84 1019.7
20260905181045 57 46 5.0 20.0 0.00 0.30 0.11 85 1019.7
20260905180555 57 284 7.0 20.0 0.00 0.30 0.11 85 1019.7
20260905180009 57 296 4.0 15.0 0.00 0.30 0.11 87 1019.6
20260905175516 57 360 1.0 8.0 0.01 0.30 0.11 88 1019.5
20260905175019 57 255 0.0 9.0 0.01 0.30 0.11 88 1019.4
20260905174558 57 212 2.0 9.0 0.01 0.30 0.11 88 1019.1
20260905174502 57 313 2.0 9.0 0.01 0.30 0.11 88 1019.1
20260905174042 57 277 0.0 7.0 0.01 0.30 0.11 88 1019.0
20260905173519 57 267 0.0 8.0 0.01 0.30 0.11 88 1018.9
20260905173039 57 286 3.0 8.0 0.01 0.30 0.11 87 1018.8
20260905172533 58 253 0.0 7.0 0.06 0.30 0.11 87 1018.6
20260905172046 58 271 0.0 9.0 0.11 0.30 0.11 87 1018.6
20260905171553 58 219 3.0 11.0 0.11 0.30 0.11 87 1018.7
20260905171004 58 305 6.0 11.0 0.11 0.30 0.11 86 1018.7
20260905170539 58 296 4.0 12.0 0.11 0.30 0.11 86 1018.6
20260905170021 58 252 6.0 12.0 0.11 0.31 0.11 85 1018.8
20260905165505 59 198 1.0 9.0 0.10 0.31 0.10 84 1018.6
20260905165013 59 217 2.0 9.0 0.10 0.31 0.10 83 1018.4
20260905164520 59 355 1.0 9.0 0.10 0.31 0.10 83 1018.3
20260905164027 60 323 2.0 8.0 0.10 0.31 0.10 81 1018.0
20260905163509 61 284 2.0 13.0 0.10 0.31 0.10 79 1017.8
20260905163043 62 263 1.0 23.0 0.10 0.31 0.10 77 1017.7
20260905162526 65 319 6.0 23.0 0.03 0.24 0.06 73 1017.9
20260905162041 67 319 5.0 22.0 0.00 0.20 0.00 61 1017.5
20260905161547 67 267 13.0 23.0 0.00 0.20 0.00 59 1016.9
20260905161055 67 273 10.0 18.0 0.00 0.20 0.00 59 1016.7
20260905160505 67 238 11.0 21.0 0.00 0.20 0.00 59 1016.6
20260905160013 67 273 8.0 17.0 0.00 0.20 0.00 60 1016.7
20260905155523 68 275 7.0 20.0 0.00 0.20 0.00 59 1016.6
20260905155059 68 262 10.0 20.0 0.00 0.20 0.00 58 1016.6
20260905155006 68 265 10.0 20.0 0.00 0.20 0.00 58 1016.6
20260905154546 68 282 7.0 20.0 0.00 0.20 0.00 58 1016.5
20260905154055 68 232 12.0 23.0 0.00 0.20 0.00 57 1016.5
20260905153505 68 275 13.0 23.0 0.00 0.20 0.00 58 1016.7
20260905153019 68 267 8.0 17.0 0.00 0.20 0.00 60 1016.6
20260905152523 67 275 9.0 17.0 0.00 0.20 0.00 60 1016.6
20260905152029 67 289 10.0 22.0 0.00 0.20 0.00 60 1016.6
20260905151537 67 244 11.0 27.0 0.00 0.20 0.00 60 1016.6
20260905151021 67 246 15.0 27.0 0.00 0.20 0.00 59 1016.6
20260905150554 67 269 12.0 22.0 0.00 0.20 0.00 60 1016.6
20260905150041 67 250 11.0 25.0 0.00 0.20 0.00 60 1016.5
20260905145555 68 267 12.0 25.0 0.00 0.20 0.00 58 1016.6
20260905145003 68 290 9.0 23.0 0.00 0.20 0.00 59 1016.4
20260905144514 68 243 11.0 26.0 0.00 0.20 0.00 57 1016.5
20260905144046 69 268 14.0 26.0 0.00 0.20 0.00 57 1016.4
20260905143529 70 290 14.0 24.0 0.00 0.20 0.00 57 1016.3
20260905143018 69 247 11.0 23.0 0.00 0.20 0.00 58 1016.4
20260905142525 68 293 8.0 23.0 0.00 0.20 0.00 58 1016.4
20260905142032 68 283 8.0 25.0 0.00 0.20 0.00 59 1016.4
20260905141543 68 255 14.0 25.0 0.00 0.20 0.00 58 1016.5
20260905141046 68 227 10.0 21.0 0.00 0.20 0.00 58 1016.4
20260905140555 68 205 11.0 23.0 0.00 0.20 0.00 58 1016.5
20260905140007 68 254 13.0 24.0 0.00 0.20 0.00 57 1016.5
20260905135546 68 235 12.0 24.0 0.00 0.20 0.00 58 1016.3
20260905135025 68 254 10.0 24.0 0.00 0.20 0.00 57 1016.2
20260905134538 69 265 10.0 24.0 0.00 0.20 0.00 57 1016.2
20260905134049 69 265 12.0 21.0 0.00 0.20 0.00 57 1016.2
20260905133555 68 319 12.0 22.0 0.00 0.20 0.00 58 1016.2
20260905133005 68 267 9.0 24.0 0.00 0.20 0.00 59 1016.3
20260905132545 68 274 12.0 25.0 0.00 0.20 0.00 58 1016.5
20260905132055 68 271 9.0 19.0 0.00 0.20 0.00 59 1016.4
20260905131508 68 262 9.0 24.0 0.00 0.20 0.00 60 1016.3
20260905131015 68 236 16.0 24.0 0.00 0.20 0.00 60 1016.4
20260905130520 67 269 11.0 18.0 0.00 0.20 0.00 62 1016.4
20260905130022 67 302 10.0 17.0 0.00 0.20 0.00 62 1016.3
20260905125505 67 245 7.0 18.0 0.00 0.20 0.00 62 1016.3
20260905125017 67 266 7.0 18.0 0.00 0.20 0.00 61 1016.3
20260905124524 67 284 8.0 16.0 0.00 0.20 0.00 61 1016.3
20260905124031 68 273 9.0 19.0 0.00 0.20 0.00 59 1016.4
20260905123538 68 278 10.0 19.0 0.00 0.20 0.00 58 1016.3